SFR421 FALE-FAPE

Flight info

Callsign SFR421
Flight time 1h 22m
Altitude 34000
Route OKTAN1A OKTAN UQ29 EPVUV DCT PEV
Aircraft B738/M-SDE2E3FGHIRWXY/LB1

Departure

Time 2026-04-29 08:59
Airport King Shaka International Airport (FALE)

Arrival

Time 2026-04-29 10:21
Airport Chief Dawid Stuurman International Airport (FAPE)
Time Latitude Longitude Altitude Speed Heading
2026-04-29 08:28 -29.61703 31.10806 279 ft 0 kts 308°
2026-04-29 08:49 -29.61708 31.10813 279 ft 2 kts 307°
2026-04-29 08:49 -29.61718 31.10828 283 ft 2 kts 308°
2026-04-29 08:49 -29.61729 31.10842 281 ft 2 kts 311°
2026-04-29 08:50 -29.61741 31.10855 281 ft 2 kts 357°
2026-04-29 08:50 -29.61750 31.10853 283 ft 0 kts 38°
2026-04-29 08:53 -29.61734 31.10866 282 ft 8 kts 36°
2026-04-29 08:53 -29.61676 31.10933 279 ft 16 kts 77°
2026-04-29 08:53 -29.61740 31.11054 279 ft 20 kts 128°
2026-04-29 08:54 -29.61765 31.11169 283 ft 16 kts 44°
2026-04-29 08:54 -29.61671 31.11253 279 ft 18 kts 37°
2026-04-29 08:54 -29.61564 31.11346 279 ft 20 kts 37°
2026-04-29 08:54 -29.61446 31.11450 280 ft 22 kts 37°
2026-04-29 08:55 -29.61317 31.11562 280 ft 24 kts 37°
2026-04-29 08:55 -29.61177 31.11684 280 ft 26 kts 37°
2026-04-29 08:55 -29.61027 31.11815 280 ft 28 kts 37°
2026-04-29 08:55 -29.60867 31.11954 280 ft 30 kts 37°
2026-04-29 08:56 -29.60702 31.12098 280 ft 24 kts 37°
2026-04-29 08:56 -29.60565 31.12218 280 ft 26 kts 38°
2026-04-29 08:56 -29.60417 31.12347 280 ft 28 kts 37°
2026-04-29 08:56 -29.60266 31.12478 280 ft 27 kts 37°
2026-04-29 08:57 -29.60109 31.12615 280 ft 29 kts 37°
2026-04-29 08:57 -29.59952 31.12752 280 ft 28 kts 37°
2026-04-29 08:57 -29.59811 31.12875 280 ft 21 kts 37°
2026-04-29 08:57 -29.59783 31.12967 280 ft 8 kts 125°
2026-04-29 08:58 -29.59815 31.13018 281 ft 8 kts 126°
2026-04-29 08:58 -29.59876 31.13061 285 ft 14 kts 197°
2026-04-29 08:58 -29.59947 31.13001 281 ft 25 kts 217°
2026-04-29 08:58 -29.60326 31.12672 281 ft 108 kts 217°
2026-04-29 08:59 -29.61129 31.11998 322 ft 173 kts 216°
2026-04-29 08:59 -29.62167 31.11065 805 ft 203 kts 217°
2026-04-29 08:59 -29.63326 31.10082 1733 ft 204 kts 216°
2026-04-29 08:59 -29.64462 31.09157 2713 ft 201 kts 215°
2026-04-29 09:00 -29.65678 31.08191 3094 ft 225 kts 211°
2026-04-29 09:00 -29.67011 31.07197 3736 ft 231 kts 214°
2026-04-29 09:00 -29.68350 31.06128 4438 ft 237 kts 215°
2026-04-29 09:00 -29.69705 31.05054 5282 ft 238 kts 215°
2026-04-29 09:01 -29.71131 31.03935 5796 ft 257 kts 215°
2026-04-29 09:01 -29.72636 31.02764 6644 ft 265 kts 215°
2026-04-29 09:01 -29.74187 31.01562 7459 ft 271 kts 216°
2026-04-29 09:01 -29.75703 31.00266 8382 ft 272 kts 219°
2026-04-29 09:02 -29.77187 30.98903 9296 ft 274 kts 220°
2026-04-29 09:02 -29.78668 30.97524 10210 ft 276 kts 221°
2026-04-29 09:02 -29.80179 30.96115 10847 ft 288 kts 221°
2026-04-29 09:02 -29.81809 30.94598 11039 ft 314 kts 221°
2026-04-29 09:03 -29.83579 30.92963 11272 ft 337 kts 221°
2026-04-29 09:03 -29.85437 30.91253 11857 ft 345 kts 221°
2026-04-29 09:03 -29.87317 30.89529 12698 ft 345 kts 221°
2026-04-29 09:03 -29.89190 30.87815 13591 ft 344 kts 222°
2026-04-29 09:04 -29.91074 30.86092 14321 ft 347 kts 223°
2026-04-29 09:04 -29.92967 30.84359 15054 ft 347 kts 223°
2026-04-29 09:04 -29.94862 30.82625 15752 ft 349 kts 223°
2026-04-29 09:04 -29.96761 30.80885 16478 ft 349 kts 224°
2026-04-29 09:05 -29.98662 30.79144 17155 ft 349 kts 224°
2026-04-29 09:05 -30.00567 30.77397 17806 ft 350 kts 224°
2026-04-29 09:05 -30.01830 30.76239 18238 ft 351 kts 225°
2026-04-29 09:05 -30.04397 30.73884 19023 ft 353 kts 225°
2026-04-29 09:06 -30.05670 30.72714 19345 ft 355 kts 225°
2026-04-29 09:06 -30.07609 30.70932 19847 ft 357 kts 225°
2026-04-29 09:06 -30.10198 30.68551 20524 ft 361 kts 226°
2026-04-29 09:06 -30.12165 30.66742 21013 ft 363 kts 226°
2026-04-29 09:07 -30.14149 30.64915 21463 ft 366 kts 226°
2026-04-29 09:07 -30.16146 30.63077 21956 ft 368 kts 226°
2026-04-29 09:07 -30.17505 30.61825 22266 ft 370 kts 226°
2026-04-29 09:07 -30.19519 30.59968 22740 ft 372 kts 227°
2026-04-29 09:08 -30.21551 30.58096 23198 ft 375 kts 227°
2026-04-29 09:08 -30.23602 30.56204 23655 ft 378 kts 227°
2026-04-29 09:08 -30.25657 30.54307 24034 ft 380 kts 227°
2026-04-29 09:08 -30.27727 30.52396 24418 ft 381 kts 227°
2026-04-29 09:09 -30.29776 30.50504 24809 ft 382 kts 227°
2026-04-29 09:09 -30.31862 30.48577 25195 ft 384 kts 227°
2026-04-29 09:09 -30.33954 30.46643 25559 ft 386 kts 227°
2026-04-29 09:09 -30.36056 30.44697 25930 ft 388 kts 227°
2026-04-29 09:10 -30.38168 30.42742 26294 ft 389 kts 228°
2026-04-29 09:10 -30.40286 30.40779 26637 ft 391 kts 228°
2026-04-29 09:10 -30.42420 30.38801 26980 ft 393 kts 228°
2026-04-29 09:10 -30.44557 30.36819 27317 ft 394 kts 228°
2026-04-29 09:11 -30.46696 30.34834 27657 ft 396 kts 228°
2026-04-29 09:11 -30.48853 30.32831 27983 ft 397 kts 228°
2026-04-29 09:11 -30.51006 30.30831 28379 ft 397 kts 228°
2026-04-29 09:11 -30.53154 30.28838 28871 ft 394 kts 229°
2026-04-29 09:12 -30.55286 30.26860 29406 ft 391 kts 229°
2026-04-29 09:12 -30.57404 30.24891 29889 ft 389 kts 229°
2026-04-29 09:12 -30.59515 30.22926 30345 ft 388 kts 229°
2026-04-29 09:12 -30.61615 30.20969 30786 ft 386 kts 229°
2026-04-29 09:13 -30.63698 30.19029 31262 ft 382 kts 229°
2026-04-29 09:13 -30.65763 30.17105 31719 ft 379 kts 229°
2026-04-29 09:13 -30.67811 30.15193 32129 ft 377 kts 230°
2026-04-29 09:13 -30.69850 30.13289 32517 ft 375 kts 230°
2026-04-29 09:14 -30.71878 30.11393 32926 ft 373 kts 230°
2026-04-29 09:14 -30.73892 30.09510 33346 ft 370 kts 230°
2026-04-29 09:14 -30.75868 30.07661 33714 ft 369 kts 230°
2026-04-29 09:14 -30.77866 30.05789 34016 ft 369 kts 230°
2026-04-29 09:15 -30.79861 30.03919 34291 ft 369 kts 230°
2026-04-29 09:15 -30.83874 30.00150 34279 ft 370 kts 230°
2026-04-29 09:16 -30.87853 29.96421 34294 ft 366 kts 230°
2026-04-29 09:16 -30.91809 29.92706 34293 ft 364 kts 230°
2026-04-29 09:17 -30.95745 29.89003 34295 ft 363 kts 230°
2026-04-29 09:17 -30.99659 29.85317 34297 ft 362 kts 230°
2026-04-29 09:18 -31.03573 29.81628 34287 ft 361 kts 230°
2026-04-29 09:18 -31.07478 29.77943 34298 ft 361 kts 230°
2026-04-29 09:19 -31.11390 29.74244 34298 ft 363 kts 230°
2026-04-29 09:19 -31.15318 29.70530 34281 ft 364 kts 230°
2026-04-29 09:20 -31.19249 29.66809 34285 ft 364 kts 230°
2026-04-29 09:20 -31.23175 29.63090 34292 ft 364 kts 230°
2026-04-29 09:21 -31.27099 29.59367 34289 ft 362 kts 230°
2026-04-29 09:21 -31.31011 29.55652 34289 ft 362 kts 230°
2026-04-29 09:22 -31.34921 29.51934 34286 ft 362 kts 230°
2026-04-29 09:22 -31.38825 29.48217 34281 ft 362 kts 231°
2026-04-29 09:23 -31.42719 29.44506 34282 ft 360 kts 231°
2026-04-29 09:23 -31.46600 29.40805 34300 ft 360 kts 231°
2026-04-29 09:24 -31.50380 29.36990 34293 ft 355 kts 234°
2026-04-29 09:24 -31.53917 29.33000 34314 ft 351 kts 234°
2026-04-29 09:25 -31.57425 29.29001 34287 ft 352 kts 234°
2026-04-29 09:25 -31.60919 29.25030 34293 ft 352 kts 234°
2026-04-29 09:26 -31.64467 29.21006 34283 ft 352 kts 234°
2026-04-29 09:26 -31.67966 29.17040 34296 ft 351 kts 234°
2026-04-29 09:27 -31.71488 29.13041 34288 ft 353 kts 234°
2026-04-29 09:27 -31.75016 29.09033 34273 ft 354 kts 234°
2026-04-29 09:28 -31.78561 29.05001 34292 ft 355 kts 234°
2026-04-29 09:28 -31.82109 29.00962 34287 ft 355 kts 234°
2026-04-29 09:29 -31.85659 28.96920 34281 ft 355 kts 234°
2026-04-29 09:29 -31.90988 28.90837 34285 ft 356 kts 234°
2026-04-29 09:30 -31.94510 28.86811 34285 ft 355 kts 234°
2026-04-29 09:30 -31.98047 28.82764 34289 ft 354 kts 235°
2026-04-29 09:31 -32.01573 28.78726 34286 ft 353 kts 235°
2026-04-29 09:31 -32.05091 28.74686 34279 ft 353 kts 235°
2026-04-29 09:32 -32.08610 28.70647 34271 ft 353 kts 235°
2026-04-29 09:32 -32.12112 28.66624 34275 ft 351 kts 235°
2026-04-29 09:33 -32.15595 28.62614 34271 ft 350 kts 235°
2026-04-29 09:33 -32.19080 28.58601 34285 ft 350 kts 235°
2026-04-29 09:34 -32.22565 28.54578 34281 ft 351 kts 235°
2026-04-29 09:34 -32.26058 28.50544 34276 ft 351 kts 235°
2026-04-29 09:35 -32.29553 28.46504 34277 ft 352 kts 235°
2026-04-29 09:35 -32.33049 28.42458 34278 ft 352 kts 235°
2026-04-29 09:36 -32.36456 28.38325 34283 ft 347 kts 240°
2026-04-29 09:36 -32.39514 28.33927 34283 ft 346 kts 240°
2026-04-29 09:37 -32.42528 28.29534 34277 ft 346 kts 240°
2026-04-29 09:37 -32.45560 28.25122 34280 ft 346 kts 240°
2026-04-29 09:38 -32.48603 28.20702 34277 ft 347 kts 240°
2026-04-29 09:38 -32.51652 28.16274 34285 ft 347 kts 240°
2026-04-29 09:39 -32.54709 28.11831 34285 ft 348 kts 240°
2026-04-29 09:39 -32.57774 28.07373 34279 ft 349 kts 240°
2026-04-29 09:40 -32.60847 28.02898 34277 ft 350 kts 240°
2026-04-29 09:40 -32.63925 27.98412 34274 ft 351 kts 240°
2026-04-29 09:41 -32.67002 27.93920 34284 ft 351 kts 240°
2026-04-29 09:41 -32.70083 27.89416 34277 ft 351 kts 240°
2026-04-29 09:42 -32.73162 27.84912 34286 ft 350 kts 241°
2026-04-29 09:42 -32.76232 27.80414 34283 ft 350 kts 241°
2026-04-29 09:43 -32.79282 27.75940 34288 ft 350 kts 241°
2026-04-29 09:43 -32.82343 27.71447 34280 ft 350 kts 241°
2026-04-29 09:44 -32.85398 27.66955 34281 ft 349 kts 241°
2026-04-29 09:44 -32.88442 27.62474 34288 ft 348 kts 241°
2026-04-29 09:45 -32.91480 27.57995 34283 ft 347 kts 241°
2026-04-29 09:45 -32.94486 27.53568 34273 ft 335 kts 241°
2026-04-29 09:46 -32.97377 27.49307 34284 ft 329 kts 241°
2026-04-29 09:46 -32.98813 27.47178 34107 ft 332 kts 241°
2026-04-29 09:46 -33.00252 27.45044 33866 ft 327 kts 241°
2026-04-29 09:47 -33.01672 27.42945 33475 ft 321 kts 241°
2026-04-29 09:47 -33.03067 27.40881 33044 ft 318 kts 241°
2026-04-29 09:47 -33.04447 27.38837 32667 ft 315 kts 241°
2026-04-29 09:47 -33.05814 27.36810 32272 ft 313 kts 241°
2026-04-29 09:48 -33.07170 27.34796 31893 ft 310 kts 241°
2026-04-29 09:48 -33.08496 27.32825 31521 ft 308 kts 241°
2026-04-29 09:48 -33.09851 27.30811 31123 ft 306 kts 241°
2026-04-29 09:48 -33.11178 27.28837 30755 ft 304 kts 241°
2026-04-29 09:49 -33.12496 27.26878 30373 ft 302 kts 241°
2026-04-29 09:49 -33.13803 27.24932 29938 ft 300 kts 241°
2026-04-29 09:49 -33.15084 27.23026 29521 ft 297 kts 240°
2026-04-29 09:49 -33.16369 27.21113 29127 ft 294 kts 241°
2026-04-29 09:50 -33.17641 27.19217 28724 ft 291 kts 240°
2026-04-29 09:50 -33.18900 27.17340 28356 ft 288 kts 240°
2026-04-29 09:50 -33.20151 27.15474 27978 ft 287 kts 240°
2026-04-29 09:50 -33.21394 27.13617 27607 ft 286 kts 240°
2026-04-29 09:51 -33.22641 27.11749 27241 ft 291 kts 240°
2026-04-29 09:51 -33.23933 27.09805 26879 ft 306 kts 239°
2026-04-29 09:51 -33.25270 27.07799 26465 ft 309 kts 239°
2026-04-29 09:51 -33.26612 27.05794 26056 ft 308 kts 239°
2026-04-29 09:52 -33.27949 27.03801 25647 ft 306 kts 239°
2026-04-29 09:52 -33.29275 27.01820 25254 ft 305 kts 239°
2026-04-29 09:52 -33.30600 26.99840 24839 ft 304 kts 239°
2026-04-29 09:52 -33.31920 26.97864 24459 ft 303 kts 238°
2026-04-29 09:53 -33.33232 26.95896 24047 ft 302 kts 238°
2026-04-29 09:53 -33.34542 26.93929 23611 ft 302 kts 238°
2026-04-29 09:53 -33.35849 26.91965 23191 ft 301 kts 238°
2026-04-29 09:53 -33.37150 26.90011 22780 ft 299 kts 237°
2026-04-29 09:54 -33.38444 26.88066 22386 ft 298 kts 237°
2026-04-29 09:54 -33.39731 26.86131 22010 ft 297 kts 237°
2026-04-29 09:54 -33.41014 26.84200 21623 ft 296 kts 237°
2026-04-29 09:54 -33.42295 26.82272 21241 ft 296 kts 236°
2026-04-29 09:55 -33.43144 26.80992 20970 ft 296 kts 236°
2026-04-29 09:55 -33.44429 26.79056 20500 ft 299 kts 236°
2026-04-29 09:55 -33.45755 26.77049 19628 ft 316 kts 234°
2026-04-29 09:55 -33.47140 26.74952 19007 ft 325 kts 234°
2026-04-29 09:56 -33.49005 26.72134 18440 ft 326 kts 233°
2026-04-29 09:56 -33.50411 26.70010 18076 ft 324 kts 233°
2026-04-29 09:56 -33.51355 26.68583 17842 ft 322 kts 233°
2026-04-29 09:56 -33.52745 26.66483 17483 ft 321 kts 233°
2026-04-29 09:57 -33.54128 26.64388 17102 ft 320 kts 233°
2026-04-29 09:57 -33.55506 26.62300 16750 ft 318 kts 233°
2026-04-29 09:57 -33.56875 26.60223 16398 ft 317 kts 233°
2026-04-29 09:57 -33.58237 26.58156 16047 ft 315 kts 233°
2026-04-29 09:58 -33.59593 26.56097 15705 ft 314 kts 233°
2026-04-29 09:58 -33.60942 26.54048 15381 ft 312 kts 233°
2026-04-29 09:58 -33.62247 26.52065 15382 ft 290 kts 233°
2026-04-29 09:58 -33.63452 26.50236 15219 ft 271 kts 233°
2026-04-29 09:59 -33.64580 26.48520 15092 ft 253 kts 233°
2026-04-29 09:59 -33.65630 26.46916 14978 ft 236 kts 234°
2026-04-29 09:59 -33.66750 26.45557 14703 ft 229 kts 211°
2026-04-29 09:59 -33.68292 26.45087 14401 ft 232 kts 178°
2026-04-29 10:00 -33.69813 26.45549 14353 ft 219 kts 163°
2026-04-29 10:00 -33.71219 26.46185 14080 ft 215 kts 162°
2026-04-29 10:00 -33.72587 26.46855 13805 ft 211 kts 161°
2026-04-29 10:00 -33.73951 26.47523 13388 ft 213 kts 161°
2026-04-29 10:01 -33.75328 26.48182 13011 ft 213 kts 161°
2026-04-29 10:01 -33.76684 26.48829 12672 ft 212 kts 162°
2026-04-29 10:01 -33.78048 26.49479 12348 ft 210 kts 161°
2026-04-29 10:01 -33.79416 26.50103 11988 ft 208 kts 170°
2026-04-29 10:02 -33.80751 26.49999 11894 ft 184 kts 210°
2026-04-29 10:02 -33.81628 26.48963 11887 ft 188 kts 249°
2026-04-29 10:02 -33.81777 26.47348 11696 ft 203 kts 283°
2026-04-29 10:02 -33.81080 26.45906 11471 ft 202 kts 314°
2026-04-29 10:03 -33.80040 26.44819 11258 ft 193 kts 318°
2026-04-29 10:03 -33.79029 26.43823 11126 ft 184 kts 318°
2026-04-29 10:03 -33.78050 26.42869 11019 ft 179 kts 319°
2026-04-29 10:03 -33.77054 26.41899 10875 ft 192 kts 319°
2026-04-29 10:04 -33.75946 26.40809 10352 ft 209 kts 319°
2026-04-29 10:04 -33.74826 26.39701 9941 ft 208 kts 319°
2026-04-29 10:04 -33.73720 26.38609 9554 ft 204 kts 318°
2026-04-29 10:04 -33.72628 26.37531 9164 ft 201 kts 315°
2026-04-29 10:05 -33.71814 26.36182 8760 ft 194 kts 298°
2026-04-29 10:05 -33.71186 26.34800 8396 ft 188 kts 297°
2026-04-29 10:05 -33.70615 26.33428 8074 ft 179 kts 284°
2026-04-29 10:05 -33.70647 26.31987 7837 ft 171 kts 261°
2026-04-29 10:06 -33.70831 26.30554 7602 ft 177 kts 261°
2026-04-29 10:06 -33.71008 26.29079 7360 ft 180 kts 262°
2026-04-29 10:06 -33.71181 26.27591 7129 ft 182 kts 262°
2026-04-29 10:06 -33.71347 26.26072 6899 ft 185 kts 262°
2026-04-29 10:07 -33.71503 26.24541 6638 ft 185 kts 272°
2026-04-29 10:07 -33.71224 26.23054 6396 ft 180 kts 281°
2026-04-29 10:07 -33.70955 26.21602 6126 ft 176 kts 280°
2026-04-29 10:07 -33.70699 26.20177 5866 ft 172 kts 280°
2026-04-29 10:08 -33.70453 26.18771 5628 ft 173 kts 279°
2026-04-29 10:08 -33.70352 26.17347 5340 ft 172 kts 254°
2026-04-29 10:08 -33.70943 26.16117 5113 ft 170 kts 236°
2026-04-29 10:08 -33.71596 26.14930 4867 ft 170 kts 239°
2026-04-29 10:09 -33.72234 26.13735 4575 ft 169 kts 239°
2026-04-29 10:09 -33.72839 26.12583 4454 ft 159 kts 239°
2026-04-29 10:09 -33.73418 26.11471 4500 ft 163 kts 239°
2026-04-29 10:09 -33.74084 26.10175 4535 ft 195 kts 239°
2026-04-29 10:10 -33.74801 26.08776 4526 ft 195 kts 239°
2026-04-29 10:10 -33.75495 26.07413 4499 ft 187 kts 240°
2026-04-29 10:10 -33.76153 26.06117 4496 ft 176 kts 240°
2026-04-29 10:10 -33.76776 26.04884 4509 ft 171 kts 240°
2026-04-29 10:11 -33.77392 26.03660 4503 ft 172 kts 240°
2026-04-29 10:11 -33.78000 26.02447 4506 ft 167 kts 240°
2026-04-29 10:11 -33.78601 26.01248 4512 ft 168 kts 240°
2026-04-29 10:11 -33.79206 26.00039 4515 ft 169 kts 240°
2026-04-29 10:12 -33.79813 25.98822 4523 ft 170 kts 240°
2026-04-29 10:12 -33.80424 25.97597 4510 ft 171 kts 240°
2026-04-29 10:12 -33.81034 25.96373 4502 ft 170 kts 240°
2026-04-29 10:12 -33.81592 25.95077 4247 ft 176 kts 249°
2026-04-29 10:13 -33.82078 25.93744 3991 ft 173 kts 243°
2026-04-29 10:13 -33.82654 25.92495 3727 ft 169 kts 241°
2026-04-29 10:13 -33.83240 25.91304 3467 ft 161 kts 240°
2026-04-29 10:13 -33.83815 25.90161 3202 ft 160 kts 239°
2026-04-29 10:14 -33.84389 25.89036 3047 ft 155 kts 240°
2026-04-29 10:14 -33.84961 25.87920 3034 ft 159 kts 240°
2026-04-29 10:14 -33.85537 25.86799 2983 ft 153 kts 239°
2026-04-29 10:14 -33.86087 25.85734 3024 ft 147 kts 240°
2026-04-29 10:15 -33.86629 25.84680 2990 ft 144 kts 240°
2026-04-29 10:15 -33.87150 25.83671 2982 ft 140 kts 240°
2026-04-29 10:15 -33.87668 25.82666 2995 ft 143 kts 240°
2026-04-29 10:15 -33.88197 25.81639 2991 ft 145 kts 241°
2026-04-29 10:16 -33.88729 25.80609 2990 ft 145 kts 240°
2026-04-29 10:16 -33.89080 25.79928 2997 ft 144 kts 239°
2026-04-29 10:16 -33.89786 25.78561 2996 ft 144 kts 241°
2026-04-29 10:16 -33.90307 25.77552 2994 ft 143 kts 240°
2026-04-29 10:17 -33.90833 25.76533 3014 ft 140 kts 240°
2026-04-29 10:17 -33.91346 25.75540 2853 ft 139 kts 240°
2026-04-29 10:17 -33.91851 25.74563 2671 ft 137 kts 239°
2026-04-29 10:17 -33.92351 25.73593 2500 ft 136 kts 239°
2026-04-29 10:18 -33.92847 25.72635 2313 ft 132 kts 240°
2026-04-29 10:18 -33.93327 25.71705 2143 ft 129 kts 240°
2026-04-29 10:18 -33.93811 25.70769 1974 ft 133 kts 240°
2026-04-29 10:18 -33.94292 25.69838 1781 ft 131 kts 239°
2026-04-29 10:19 -33.94770 25.68914 1611 ft 129 kts 240°
2026-04-29 10:19 -33.95250 25.67985 1442 ft 131 kts 238°
2026-04-29 10:19 -33.95752 25.67038 1286 ft 136 kts 237°
2026-04-29 10:19 -33.96286 25.66072 1097 ft 138 kts 240°
2026-04-29 10:20 -33.96774 25.65082 867 ft 137 kts 244°
2026-04-29 10:20 -33.97240 25.64148 660 ft 122 kts 239°
2026-04-29 10:20 -33.97690 25.63301 451 ft 119 kts 240°
2026-04-29 10:20 -33.98120 25.62439 328 ft 119 kts 232°
2026-04-29 10:21 -33.98536 25.61644 216 ft 103 kts 237°
2026-04-29 10:21 -33.98836 25.61065 212 ft 60 kts 238°
2026-04-29 10:21 -33.99062 25.60628 207 ft 50 kts 238°
2026-04-29 10:21 -33.99220 25.60323 213 ft 39 kts 239°
2026-04-29 10:22 -33.99330 25.60110 210 ft 28 kts 239°
2026-04-29 10:22 -33.99339 25.59981 217 ft 11 kts 321°
2026-04-29 10:22 -33.99255 25.59927 212 ft 18 kts 345°
2026-04-29 10:22 -33.99176 25.60000 214 ft 18 kts 56°
2026-04-29 10:23 -33.99088 25.60164 213 ft 28 kts 57°
2026-04-29 10:23 -33.98991 25.60342 212 ft 23 kts 56°
2026-04-29 10:23 -33.98896 25.60518 218 ft 18 kts 57°
2026-04-29 10:23 -33.98835 25.60631 214 ft 17 kts 57°
2026-04-29 10:24 -33.98764 25.60763 217 ft 20 kts 57°
2026-04-29 10:24 -33.98699 25.60882 211 ft 12 kts 57°
2026-04-29 10:24 -33.98649 25.60978 213 ft 14 kts 58°
2026-04-29 10:24 -33.98601 25.61071 211 ft 12 kts 58°
2026-04-29 10:25 -33.98559 25.61153 211 ft 11 kts 58°
2026-04-29 10:25 -33.98518 25.61232 211 ft 11 kts 58°
2026-04-29 10:25 -33.98478 25.61309 214 ft 11 kts 58°
2026-04-29 10:25 -33.98444 25.61380 216 ft 6 kts 65°
2026-04-29 10:26 -33.98409 25.61388 215 ft 2 kts 335°
2026-04-29 10:26 -33.98393 25.61377 211 ft 3 kts 328°
2026-04-29 10:26 -33.98381 25.61367 213 ft 1 kts 328°
2026-04-29 10:26 -33.98380 25.61367 213 ft 0 kts 328°
2026-04-29 10:27 -33.98379 25.61366 213 ft 0 kts 328°